Fort Campbell, KY

4:33 AM CDT on April 26, 2017 (GMT -0500)
Campbell Army Air Field

Weather History for KHOP - April, 2014

Change the Weather History Date:

Saturday, April 26, 2014

  Actual Average Record
Temperature  
Mean Temperature 64 °F -  
Max Temperature 82 °F 71 °F 83 °F (2012)
Min Temperature 47 °F 50 °F 42 °F (2001)
Degree Days  
Heating Degree Days 1    
Growing Degree Days 14 (Base 50)    
Moisture  
Dew Point 46 °F    
Average Humidity 51    
Maximum Humidity 100    
Minimum Humidity 25    
Precipitation  
Precipitation 0.00 in - - ()
Sea Level Pressure  
Sea Level Pressure 29.94 in    
Wind  
Wind Speed 3 mph (South)    
Max Wind Speed 12 mph    
Max Gust Speed -    
Visibility 10 miles    
Events      
Averages and records for this station are not official NWS values.
T = Trace of Precipitation, MM = Missing Value Source: NWS Daily Summary

Daily Weather History Graph

Daily Weather History Graph

Search for Another Location

Airport or City:

Trip Planner

Search our weather history database for the weather conditions in past years. The results will help you decide how hot, cold, wet, or windy it might be!

Date:

Astronomy

Apr. 26, 2014 Rise Set
Actual Time 6:02 AM CDT 7:34 PM CDT
Civil Twilight 5:34 AM CDT 8:01 PM CDT
Nautical Twilight 5:01 AM CDT 8:34 PM CDT
Astronomical Twilight 4:27 AM CDT 9:09 PM CDT
Moon 4:21 AM CDT 5:05 PM CDT
Length of Visible Light 14h 26m
Length of Day
13h 32m
Waning Crescent, 8% of the Moon is Illuminated
Apr 26
Waning Crescent
Apr 29
New
May 6
First Quarter
May 14
Full
May 21
Last Quarter

Hourly Weather History & Observations

Time (CDT) Temp. Dew Point Humidity Pressure Visibility Wind Dir Wind Speed Gust Speed Precip Events Conditions
12:58 AM 54.7 °F 46.9 °F 75% 29.97 in 10.0 mi Calm Calm - N/A   Clear
1:58 AM 53.1 °F 46.6 °F 79% 29.96 in 10.0 mi Calm Calm - N/A   Clear
2:58 AM 51.3 °F 46.4 °F 83% 29.96 in 10.0 mi SE 1.2 mph - N/A   Clear
3:58 AM 50.0 °F 49.8 °F 99% 29.95 in 10.0 mi SE 1.2 mph - N/A   Clear
4:58 AM 48.9 °F 48.0 °F 97% 29.97 in 10.0 mi Calm Calm - N/A   Clear
5:58 AM 47.3 °F 47.3 °F 100% 29.97 in 10.0 mi East 3.5 mph - N/A   Clear
6:58 AM 48.6 °F 48.6 °F 100% 29.98 in 10.0 mi ESE 2.3 mph - N/A   Clear
7:58 AM 55.9 °F 48.0 °F 75% 29.99 in 10.0 mi Variable 2.3 mph - N/A   Clear
8:58 AM 64.6 °F 45.1 °F 49% 30.00 in 10.0 mi South 5.8 mph - N/A   Clear
9:58 AM 70.3 °F 41.7 °F 35% 30.01 in 10.0 mi South 6.9 mph - N/A   Clear
10:58 AM 73.4 °F 42.4 °F 33% 30.00 in 10.0 mi Variable 4.6 mph - N/A   Clear
11:58 AM 76.8 °F 44.1 °F 31% 29.99 in 10.0 mi SSW 11.5 mph - N/A   Partly Cloudy
12:58 PM 78.3 °F 43.3 °F 29% 29.97 in 10.0 mi SW 5.8 mph - N/A   Mostly Cloudy
1:58 PM 79.5 °F 42.8 °F 27% 29.96 in 10.0 mi Variable 6.9 mph - N/A   Scattered Clouds
2:58 PM 81.5 °F 43.5 °F 26% 29.94 in 10.0 mi SSW 9.2 mph - N/A   Clear
3:58 PM 81.9 °F 42.6 °F 25% 29.92 in 10.0 mi SW 9.2 mph - N/A   Clear
4:58 PM 81.7 °F 44.6 °F 27% 29.90 in 10.0 mi WSW 8.1 mph - N/A   Partly Cloudy
5:58 PM 80.8 °F 44.2 °F 27% 29.88 in 10.0 mi SSW 5.8 mph - N/A   Scattered Clouds
6:28 PM 78.8 °F 46.4 °F 32% 29.89 in 10.0 mi WSW 4.6 mph - N/A   Light Drizzle
6:33 PM 78.8 °F 46.4 °F 32% 29.89 in 10.0 mi WSW 4.6 mph - N/A   Scattered Clouds
6:58 PM 78.1 °F 46.2 °F 32% 29.88 in 10.0 mi South 2.3 mph - 0.00 in   Mostly Cloudy
7:58 PM 73.2 °F 49.8 °F 44% 29.88 in 10.0 mi Calm Calm - N/A   Clear
8:58 PM 71.4 °F 46.2 °F 41% 29.90 in 10.0 mi South 5.8 mph - N/A   Scattered Clouds
9:58 PM 73.8 °F 43.7 °F 34% 29.89 in 10.0 mi South 5.8 mph - N/A   Mostly Cloudy
10:58 PM 70.5 °F 45.9 °F 41% 29.90 in 10.0 mi East 2.3 mph - N/A   Partly Cloudy
11:58 PM 68.9 °F 45.9 °F 44% 29.88 in 10.0 mi SE 2.3 mph - N/A   Clear